Fallon NAS, NV

8:01 AM PDT on October 19, 2017 (GMT -0700)
Fallon Naval Air Station

Weather History for KNFL - December, 2013

Change the Weather History Date:

Thursday, December 5, 2013

  Actual Average Record
Temperature  
Mean Temperature 22 °F -  
Max Temperature 27 °F 49 °F 66 °F (1958)
Min Temperature 16 °F 20 °F -1 °F (1992)
Degree Days  
Heating Degree Days 43    
Moisture  
Dew Point 11 °F    
Average Humidity 64    
Maximum Humidity 78    
Minimum Humidity 45    
Precipitation  
Precipitation 0.00 in - - ()
Sea Level Pressure  
Sea Level Pressure 29.96 in    
Wind  
Wind Speed 4 mph (NE)    
Max Wind Speed 8 mph    
Max Gust Speed -    
Visibility 10 miles    
Events      
Averages and records for this station are not official NWS values.
T = Trace of Precipitation, MM = Missing Value Source: NWS Daily Summary

Daily Weather History Graph

Daily Weather History Graph

Search for Another Location

Airport or City:

Trip Planner

Search our weather history database for the weather conditions in past years. The results will help you decide how hot, cold, wet, or windy it might be!

Date:

Astronomy

Dec. 05, 2013 Rise Set
Actual Time 6:59 AM PST 4:31 PM PST
Civil Twilight 6:30 AM PST 5:01 PM PST
Nautical Twilight 5:56 AM PST 5:34 PM PST
Astronomical Twilight 5:24 AM PST 6:07 PM PST
Moon 9:24 AM PST (12/5) 7:57 PM PST (12/5)
Length of Visible Light 10h 31m
Length of Day
9h 31m
Waxing Crescent, 11% of the Moon is Illuminated
Dec 5
Waxing Crescent
Dec 9
First Quarter
Dec 17
Full
Dec 25
Last Quarter
Jan 1
New

Hourly Weather History & Observations

Time (PST) Temp. Windchill Dew Point Humidity Pressure Visibility Wind Dir Wind Speed Gust Speed Precip Events Conditions
12:56 AM 21.0 °F 13.4 °F 15.1 °F 78% 29.95 in - North 5.8 mph - N/A   Overcast
1:56 AM 21.9 °F 14.5 °F 14.0 °F 72% 29.95 in 10.0 mi NNW 5.8 mph - N/A   Overcast
2:56 AM 21.9 °F 14.5 °F 12.0 °F 66% 29.95 in 10.0 mi North 5.8 mph - N/A   Overcast
3:56 AM 21.0 °F 12.4 °F 12.9 °F 71% 29.95 in 10.0 mi NNE 6.9 mph - N/A   Overcast
4:56 AM 21.0 °F 16.2 °F 12.9 °F 71% 29.95 in 10.0 mi NE 3.5 mph - N/A   Overcast
5:56 AM 21.0 °F 16.2 °F 12.9 °F 71% 29.95 in 10.0 mi NNE 3.5 mph - N/A   Overcast
6:13 AM 21.0 °F 13.4 °F 14.0 °F 74% 30.05 in 10.0 mi North 5.8 mph - N/A   Overcast
6:56 AM 21.0 °F 13.4 °F 12.9 °F 71% 29.97 in 10.0 mi NNE 5.8 mph - N/A   Overcast
7:56 AM 21.0 °F 14.6 °F 12.9 °F 71% 29.98 in 10.0 mi North 4.6 mph - N/A   Overcast
8:56 AM 23.0 °F 17.0 °F 12.0 °F 63% 29.99 in 10.0 mi NNE 4.6 mph - N/A   Mostly Cloudy
9:56 AM 23.0 °F - 6.1 °F 48% 30.00 in 10.0 mi Calm Calm - N/A   Mostly Cloudy
10:56 AM 24.1 °F - 7.0 °F 48% 29.99 in 10.0 mi Calm Calm - N/A   Mostly Cloudy
11:56 AM 25.0 °F 18.1 °F 7.0 °F 46% 29.96 in 10.0 mi SSE 5.8 mph - N/A   Mostly Cloudy
12:56 PM 26.1 °F - 8.1 °F 47% 29.95 in 10.0 mi Calm Calm - N/A   Mostly Cloudy
1:56 PM 24.8 °F - 6.8 °F 46% 29.94 in 10.0 mi Calm Calm - N/A   Scattered Clouds
2:56 PM 27.0 °F - 8.1 °F 45% 29.93 in 10.0 mi Calm Calm - N/A   Scattered Clouds
3:56 PM 26.1 °F - 8.1 °F 47% 29.93 in 10.0 mi Calm Calm - N/A   Scattered Clouds
4:56 PM 23.0 °F 17.0 °F 10.0 °F 58% 29.93 in 10.0 mi SSW 4.6 mph - N/A   Scattered Clouds
5:56 PM 21.0 °F - 10.0 °F 63% 29.94 in 10.0 mi Calm Calm - N/A   Partly Cloudy
6:56 PM 19.0 °F - 10.9 °F 71% 29.94 in 10.0 mi Calm Calm - N/A   Partly Cloudy
7:56 PM 18.0 °F - 10.0 °F 71% 29.95 in 10.0 mi Calm Calm - N/A   Partly Cloudy
8:56 PM 18.0 °F - 10.9 °F 74% 29.95 in 10.0 mi Calm Calm - N/A   Partly Cloudy
9:56 PM 18.0 °F 8.7 °F 10.9 °F 74% 29.95 in 10.0 mi SE 6.9 mph - N/A   Scattered Clouds
10:56 PM 17.1 °F 8.7 °F 10.9 °F 77% 29.95 in 10.0 mi SSE 5.8 mph - N/A   Scattered Clouds
11:56 PM 16.0 °F 5.3 °F 10.0 °F 77% 29.94 in 10.0 mi SSE 8.1 mph - N/A   Mostly Cloudy